EHI
3 6 8 5 2 0 0 0 0 0 0 0 0 0 0 0 0 0 0 0 0 0 1 3 4 4 3 2 1 0 0 0 0 0 0 0 0 0 0 0 0 0 0 0 0 0 0 1 2
2 6 8 5 1 0 0 0 0 0 0 0 0 0 0 0 0 0 0 0 0 0 1 2 4 4 3 3 1 1 1 0 0 0 0 0 0 0 0 0 0 0 0 0 0 0 0 1 2
3 5 5 2 0 0 0 0 0 0 0 0 0 0 0 0 0 0 0 0 0 0 0 1 3 3 3 3 3 2 2 1 0 0 0 0 0 0 0 0 0 0 0 0 0 0 0 1 2
3 4 2 0 0 0 0 0 0 0 1 1 0 0 0 0 0 0 0 0 0 0 0 1 2 3 3 3 3 3 2 1 0 0 0 0 0 0 0 0 0 0 0 0 0 0 0 1 1
1 1 0 0 0 0 0 0 0 0 1 2 1 1 0 0 0 0 0 0 0 0 0 0 1 2 3 3 3 2 1 0 0 0 0 0 0 0 0 0 0 0 0 0 0 0 0 0 0
0 0 0 0 0 0 0 0 0 1 2 2 1 1 1 0 0 0 0 0 0 0 0 0 0 1 2 2 1 1 0 0 0 1 0 0 0 0 0 0 0 0 0 0 0 0 0 0 0
0 0 0 0 0 0 0 0 0 1 2 1 0 1 2 1 0 0 0 0 0 0 0 0 0 0 1 1 0 0 0 0 0 0 0 0 0 0 0 0 0 0 0 0 0 0 0 0 0
0 0 0 0 0 0 0 0 0 1 2 1 0 1 3 4 2 1 1 1 0 0 0 0 0 0 0 0 0 0 0 0 0 0 0 0 0 0 0 0 0 0 0 0 0 0 0 0 0
0 0 0 0 0 0 0 0 0 1 2 1 1 3 6 8 5 2 3 4 3 1 0 0 0 0 0 0 0 0 0 0 0 0 0 0 0 0 0 0 0 0 0 0 0 0 0 1 1
0 0 0 0 0 0 0 0 0 1 2 2 4 7 11 11 6 2 3 6 7 4 2 0 0 0 0 0 0 0 0 0 0 0 0 0 0 0 0 0 0 0 0 0 0 0 0 0 0
0 0 0 0 0 0 0 0 0 0 1 1 6 12 16 12 6 2 2 5 7 6 3 1 1 0 0 0 0 0 1 1 1 0 0 0 0 0 0 0 0 0 0 0 0 0 0 0 0
0 0 0 0 0 0 0 0 0 0 0 2 8 16 17 11 5 1 1 3 5 6 4 3 2 2 2 1 1 1 1 2 2 2 2 1 0 0 0 0 0 0 0 0 0 0 0 0 0
0 0 0 0 0 0 0 0 0 0 1 5 12 17 16 10 5 2 1 2 5 7 7 6 6 5 4 3 3 2 2 2 2 4 3 1 0 0 0 0 0 0 0 0 0 0 0 0 0
0 0 0 0 0 0 0 0 0 1 4 9 14 16 14 10 6 4 3 4 6 9 9 9 10 9 7 5 4 4 3 3 3 4 4 2 1 1 1 1 0 0 0 0 0 0 0 0 0
0 0 0 0 0 0 0 0 1 4 8 12 15 15 13 11 8 6 5 6 6 7 8 10 11 10 8 6 6 5 4 4 3 4 4 4 3 2 1 1 0 0 0 0 0 0 1 1 0
0 0 0 0 0 0 0 0 1 5 9 12 14 15 13 12 10 8 6 6 5 5 7 8 9 9 9 7 7 6 5 4 3 4 4 4 4 3 2 1 0 0 0 0 0 0 1 1 1
0 0 0 0 0 0 0 0 2 5 7 8 11 13 14 13 13 11 10 10 8 5 6 8 10 10 9 7 6 6 5 4 3 3 4 3 3 3 3 2 1 0 0 0 0 1 1 1 1
0 0 0 0 0 0 0 0 1 4 5 5 8 11 13 14 16 16 16 16 14 10 9 11 13 12 10 8 6 5 5 4 4 3 2 2 2 3 3 3 2 2 1 1 1 1 1 2 2
0 0 0 0 0 0 0 0 1 2 3 4 6 8 11 15 19 21 22 23 23 21 19 21 20 17 14 11 8 7 6 5 4 3 2 1 1 2 2 3 3 4 3 2 1 1 1 1 1
0 0 0 0 0 0 0 0 0 2 3 4 5 5 8 14 20 24 25 27 30 32 31 30 28 26 22 16 12 10 7 5 4 4 4 4 3 2 3 3 4 5 5 4 3 3 3 2 2
0 0 0 0 0 0 0 0 1 3 4 4 4 4 7 14 19 24 26 30 34 36 33 31 32 33 30 24 18 14 11 7 6 6 7 7 6 5 5 4 4 5 5 5 6 8 8 6 6
0 0 0 0 0 0 0 0 2 4 6 5 3 4 8 13 17 22 27 30 33 33 29 28 31 35 36 31 24 20 17 12 9 8 7 8 9 8 7 6 7 8 7 8 9 11 13 11 9
0 0 0 0 0 0 0 0 1 3 6 7 5 6 10 14 17 22 26 30 30 27 26 28 30 35 38 36 29 25 20 14 11 9 8 8 9 9 8 8 9 10 10 10 11 12 14 14 11
0 0 0 0 0 0 0 0 0 2 4 6 7 8 11 16 20 23 28 32 30 26 26 30 34 37 38 35 30 25 20 15 12 12 11 10 10 10 8 8 8 10 11 11 11 11 13 14 14
0 0 0 0 0 0 0 0 0 1 2 3 6 9 13 17 21 26 33 38 36 31 28 31 38 40 36 31 26 21 18 16 16 16 14 12 11 9 8 8 9 10 10 10 10 11 12 13 14
0 0 0 0 0 0 0 0 0 0 0 1 5 12 16 19 23 30 38 42 40 36 31 33 40 42 34 28 22 18 14 14 15 15 12 10 9 7 7 9 10 10 9 8 9 10 11 12 13
0 0 0 0 0 0 0 0 0 0 0 1 6 14 20 23 27 34 39 41 38 34 32 35 42 44 36 27 22 17 14 14 11 9 8 8 7 7 7 9 10 9 7 7 8 9 9 10 11
0 0 0 0 0 0 0 0 0 1 1 2 8 16 22 27 30 35 40 40 37 34 35 39 45 46 39 29 21 16 15 14 10 6 5 6 8 9 9 9 9 8 7 7 8 8 7 8 9
0 0 0 0 0 0 0 0 0 0 1 4 9 17 23 27 31 35 39 39 36 36 38 41 45 45 39 30 21 15 14 14 10 7 6 7 8 9 9 9 8 7 7 8 9 8 7 7 8
0 0 0 0 0 0 0 0 0 0 1 4 10 17 23 27 31 35 38 37 35 37 39 41 43 43 37 30 21 15 14 13 9 8 8 9 8 8 8 8 8 7 7 10 11 9 7 7 7
Wind_Speed
8 7 6 5 2 9 15 12 10 9 8 9 9 7 9 10 9 11 9 9 9 10 12 11 10 10 11 11 11 12 12 12 12 13 13 13 13 14 14 14 15 15 15 14 15 15 15 15 15
5 5 6 3 5 11 14 12 12 11 9 9 8 9 10 11 10 10 10 9 9 10 10 11 11 10 10 11 11 11 12 12 12 12 12 13 13 14 14 14 14 15 14 14 14 14 14 14 14
5 6 4 4 12 13 13 11 11 10 8 6 7 8 8 9 9 8 10 11 9 9 10 12 9 10 10 10 10 10 11 11 11 11 12 13 13 13 13 14 14 14 14 13 13 13 13 13 13
5 6 1 9 16 14 11 10 8 9 9 7 8 10 9 8 6 9 12 10 11 10 10 13 9 10 9 10 10 10 10 11 11 11 12 12 12 12 13 14 14 13 13 13 13 12 12 12 12
6 2 8 13 15 12 10 8 5 7 7 7 8 11 10 8 9 12 11 10 10 10 10 13 9 9 9 9 9 10 10 10 11 11 12 12 12 12 13 13 13 13 13 12 12 11 11 11 10
3 1 8 12 13 10 8 6 6 9 9 9 10 11 9 8 10 11 11 9 9 9 10 12 10 9 9 9 9 9 9 10 10 11 11 11 11 11 12 12 12 12 11 11 10 10 10 10 9
2 4 9 12 11 10 7 5 5 8 8 8 7 10 10 9 10 10 9 8 8 8 9 9 10 10 9 8 8 9 9 9 10 10 10 10 10 10 11 10 11 11 10 10 9 9 9 9 8
3 2 8 9 9 10 7 6 6 6 8 7 4 7 10 12 11 10 10 9 8 8 8 7 7 7 8 10 9 8 8 8 9 9 9 9 10 10 9 10 10 9 9 8 8 8 8 8 7
5 2 8 8 8 9 7 7 6 6 8 6 5 7 13 15 13 11 10 9 8 7 6 6 7 6 5 7 9 8 8 7 7 8 7 5 6 7 7 11 9 8 8 8 7 7 6 6 8
3 5 9 6 6 7 7 5 7 6 8 8 10 12 15 14 13 11 11 10 9 8 7 6 5 6 4 4 5 4 5 6 4 4 5 4 4 4 6 9 7 7 7 7 6 4 6 6 5
3 6 6 5 4 5 7 6 5 5 6 8 11 15 16 14 12 10 9 8 8 8 6 7 6 5 4 4 3 3 3 3 4 5 4 4 3 3 3 4 6 6 6 5 6 6 2 2 2
3 5 3 3 4 4 5 6 5 3 6 8 12 16 15 14 12 10 9 8 8 7 7 6 7 5 3 2 3 3 3 3 3 4 2 3 2 2 2 1 2 3 2 2 1 2 2 1 2
3 4 4 3 4 4 5 5 5 5 7 10 14 16 14 13 11 9 8 8 8 7 7 7 5 5 4 2 1 2 2 2 3 3 3 1 2 2 2 1 0 1 2 3 2 1 2 2 2
3 3 4 4 5 5 5 6 5 7 10 12 14 14 13 12 11 10 9 8 8 8 7 7 7 6 5 3 2 1 2 2 1 2 3 2 1 1 1 2 1 1 1 0 1 1 2 2 1
3 4 6 5 4 4 5 6 5 9 12 13 13 12 12 11 10 9 9 8 8 8 7 7 7 7 6 5 4 3 3 3 2 2 2 2 2 2 2 1 2 1 1 1 2 2 2 2 2
6 6 5 5 3 3 7 5 8 10 11 12 11 11 11 10 10 9 8 8 7 7 7 7 7 8 7 5 4 3 2 2 2 2 2 3 2 3 3 2 2 1 2 2 2 3 2 2 2
8 6 4 6 3 3 6 3 8 9 10 11 11 11 11 11 11 9 9 9 8 7 8 8 7 7 7 6 5 4 2 2 2 2 2 2 3 3 4 2 1 3 2 2 3 2 2 2 2
5 5 5 5 4 4 5 2 6 8 9 10 11 11 11 11 11 10 9 9 9 8 8 8 8 7 6 5 4 4 3 3 3 3 2 3 3 4 4 3 2 4 3 3 2 2 3 3 3
3 4 4 3 2 4 4 4 5 8 9 9 10 11 11 11 10 9 9 9 9 9 9 8 8 7 6 5 5 4 4 3 3 3 3 3 3 4 4 4 2 4 3 3 4 4 4 4 3
7 7 5 5 2 4 4 5 4 7 9 9 9 10 10 10 10 10 10 10 10 10 9 9 8 7 7 5 4 3 2 2 2 2 2 4 4 4 4 4 4 4 3 4 4 4 4 3 3
8 7 4 3 3 5 5 7 7 7 8 8 9 10 10 11 11 11 11 11 10 10 10 8 8 8 8 6 5 3 3 3 3 3 3 3 4 4 4 4 4 4 5 4 4 4 6 5 4
9 4 4 4 6 4 5 4 6 7 8 9 10 10 11 11 11 11 11 11 11 10 9 8 9 8 8 7 6 6 5 4 3 2 1 2 2 3 3 4 4 4 4 4 5 4 4 5 4
4 4 5 5 6 5 5 7 5 6 7 8 9 10 10 10 10 10 10 10 10 9 8 8 8 8 8 8 7 7 6 4 3 2 2 2 2 2 3 3 4 4 4 4 5 4 5 4 5
6 7 5 6 7 8 4 7 2 3 3 3 6 8 9 9 9 9 9 9 9 9 8 8 8 8 8 8 7 7 6 4 3 3 2 2 2 2 2 3 3 4 4 4 4 5 5 4 4
11 10 8 9 8 6 3 6 2 2 0 2 2 5 7 9 10 10 10 10 10 10 9 8 8 7 7 7 7 6 6 5 4 4 2 2 2 1 1 2 2 3 3 3 4 3 4 4 4
13 13 9 7 7 6 6 6 1 2 1 1 2 4 6 8 9 10 10 10 10 9 9 8 8 7 7 7 6 5 5 3 2 2 1 1 1 2 2 2 2 3 3 3 3 3 3 2 3
14 13 11 8 6 6 5 4 3 4 3 3 4 6 7 8 9 10 10 9 9 9 9 8 8 7 6 6 5 4 3 2 2 1 1 0 1 1 1 1 1 2 2 3 2 2 2 1 2
8 11 8 9 7 8 6 6 3 4 3 4 5 6 7 8 9 10 9 9 8 8 8 7 7 6 6 5 4 4 3 3 2 1 1 0 1 2 1 1 1 1 2 2 2 1 1 1 1
11 11 9 9 8 8 6 3 3 2 2 3 5 6 7 9 10 10 9 9 9 8 8 7 7 6 5 5 4 3 3 3 3 2 1 1 1 1 1 1 1 2 2 2 2 2 2 2 2
14 13 13 10 8 8 7 2 6 2 2 3 5 6 7 9 9 10 10 9 8 8 8 7 7 6 5 5 4 4 3 3 3 3 2 2 1 1 1 1 2 2 3 2 2 3 3 3 3
Wind_Direction
199 202 225 239 185 75 69 69 76 84 76 70 65 59 61 44 41 80 105 113 114 112 109 111 93 93 93 94 94 95 94 92 90 90 89 90 91 93 94 95 96 95 95 95 95 96 98 99 101
196 200 230 237 73 78 72 70 72 72 92 99 83 80 77 68 66 100 121 119 121 111 110 100 100 96 92 92 93 94 94 93 92 92 92 91 92 94 96 98 98 97 97 96 95 96 99 101 101
205 231 266 69 62 67 78 78 83 89 94 92 87 69 64 79 96 109 120 130 122 106 105 101 103 98 93 93 92 92 94 94 93 93 92 91 92 93 96 97 97 99 99 98 97 98 101 103 103
226 217 192 75 75 69 81 89 98 105 93 88 100 91 80 73 95 116 128 133 124 123 116 104 104 100 96 96 94 92 94 95 93 92 92 91 91 93 94 96 97 98 99 99 98 99 101 105 106
240 242 93 82 78 80 82 85 84 88 90 98 99 100 91 81 106 122 132 136 129 121 113 111 106 102 99 96 94 93 95 96 95 93 93 93 92 92 94 95 96 97 98 97 96 97 100 105 108
235 146 82 83 85 89 93 92 91 92 100 105 108 105 93 113 126 131 134 134 124 120 116 115 115 106 103 100 95 94 94 94 96 96 97 98 95 94 95 96 98 97 96 95 96 96 97 101 105
337 67 80 87 95 94 89 93 90 101 108 105 111 107 117 134 133 135 132 127 123 120 118 122 129 127 122 109 102 99 97 96 96 96 99 100 99 98 99 98 98 99 96 95 96 96 98 99 104
320 112 95 89 89 89 103 106 93 101 99 111 122 120 135 142 144 141 138 137 133 128 122 126 123 124 136 129 114 107 104 101 99 101 103 108 113 112 116 116 101 101 101 99 98 99 100 103 106
266 111 85 77 80 97 119 120 107 107 120 119 92 95 122 138 148 149 147 144 138 131 126 129 123 123 127 123 124 134 128 122 134 126 127 161 135 122 132 94 101 105 104 101 98 103 112 129 131
294 73 72 62 66 101 123 121 126 143 135 127 115 111 127 146 155 159 156 154 150 148 146 130 128 126 134 119 127 139 139 130 130 108 124 117 92 86 93 108 108 109 115 123 117 135 172 202 148
35 63 78 90 88 109 131 129 141 151 130 140 142 142 148 154 161 163 159 155 146 153 152 143 139 144 148 127 136 125 123 125 134 120 122 106 125 127 130 139 146 149 165 157 152 185 176 126 82
84 74 69 84 109 134 129 127 133 107 80 121 142 148 154 161 164 164 159 157 152 161 159 151 147 149 139 127 132 151 144 142 129 124 137 125 127 124 118 150 138 158 148 127 164 154 133 116 111
96 88 88 106 135 131 137 126 119 112 104 125 138 150 159 164 162 162 159 160 163 170 169 162 163 157 160 160 213 142 137 137 132 133 133 170 159 149 138 132 177 198 155 172 187 159 152 180 180
78 103 112 119 128 147 150 132 140 119 130 138 148 158 164 165 164 162 168 173 177 179 176 170 178 173 175 179 191 185 171 160 155 149 147 196 178 139 167 182 200 202 208 253 233 194 191 211 214
165 159 137 128 144 149 179 155 139 132 147 151 157 162 165 169 170 175 177 181 182 183 183 183 185 183 189 197 202 200 195 179 182 157 167 203 209 179 219 202 216 198 187 213 227 244 233 215 209
198 205 169 128 156 162 233 129 125 148 162 161 163 166 173 177 182 182 181 185 186 186 187 194 197 185 191 205 217 223 212 190 213 205 183 204 222 223 243 239 234 215 232 224 219 233 235 244 239
202 204 166 140 160 188 232 128 131 164 174 171 173 174 180 182 190 188 187 186 191 191 192 196 206 198 198 197 204 221 217 233 246 239 231 213 228 232 242 249 251 248 246 246 249 208 243 242 247
197 192 177 160 145 214 226 165 141 172 187 182 181 182 185 191 193 189 191 189 188 189 194 201 203 202 202 199 202 218 223 229 233 236 231 241 237 237 249 235 229 255 254 252 260 258 253 255 248
212 216 186 136 115 234 232 224 171 178 193 194 191 189 193 197 189 185 189 192 187 188 191 198 205 198 202 206 212 208 213 220 222 228 225 231 246 249 251 263 228 252 255 257 249 249 239 245 247
211 213 194 150 138 248 238 232 189 187 201 204 201 197 197 194 188 187 190 192 193 192 193 197 202 201 205 206 216 223 238 237 232 243 226 232 238 249 239 245 253 248 253 253 257 255 266 258 239
210 221 209 181 180 208 243 209 188 185 200 205 210 207 202 198 194 192 195 195 194 194 196 198 198 201 205 208 208 209 212 233 227 224 219 228 238 247 264 262 264 267 261 251 252 253 252 261 251
203 201 214 206 229 193 243 228 170 183 192 201 207 207 204 201 198 195 193 194 193 192 190 195 195 198 200 204 215 217 226 239 249 247 233 240 245 258 260 262 261 264 268 267 259 252 260 258 258
199 169 205 222 242 241 215 261 151 170 202 203 205 206 204 199 198 195 193 188 189 187 185 189 194 195 196 201 208 218 228 236 244 238 224 249 245 258 270 270 268 264 265 269 275 277 266 260 260
160 168 182 221 234 232 221 259 201 165 223 211 191 197 199 197 194 190 184 177 179 180 182 186 190 192 192 197 207 217 224 233 241 239 240 236 237 249 267 270 275 274 275 270 265 267 261 265 268
198 200 202 207 216 218 168 247 265 56 354 270 201 183 188 191 188 181 177 175 177 179 182 183 181 184 188 193 202 213 220 219 226 240 234 254 267 270 306 305 299 295 292 282 277 268 277 271 266
207 220 230 229 222 195 180 239 192 83 80 194 190 167 168 177 176 176 175 174 175 177 177 177 175 176 180 188 196 207 211 215 216 226 264 269 291 317 339 328 311 311 312 304 294 279 271 274 271
200 222 242 251 250 244 204 214 211 177 169 156 150 150 153 159 162 164 164 166 168 172 174 172 170 169 176 181 181 185 186 195 194 179 211 246 294 309 349 336 341 336 329 324 309 307 300 298 280
235 212 217 237 231 235 213 225 224 170 166 151 145 144 147 151 154 154 155 156 157 161 162 162 161 165 168 169 175 163 162 167 171 170 115 25 1 4 359 6 11 1 0 356 342 351 342 325 322
193 205 217 230 244 248 230 199 108 148 147 155 139 140 148 148 148 147 147 147 149 150 149 152 155 156 156 156 152 148 148 149 149 146 131 101 62 49 32 33 35 31 28 30 31 17 3 5 5
213 210 206 215 215 242 261 155 110 132 139 135 130 135 140 143 142 143 144 146 148 147 147 147 150 150 147 141 139 138 139 139 134 124 113 114 105 81 68 57 44 46 48 43 38 26 27 25 20